Location: Dehesa de la Cepeda
(40.6574°N, 4.3013°W)
Time: 18:45:02
(UTC+00:00)

Explorer 7 - Pass Details

Date: 08 August 2021
Orbit: 484 x 676 km, 50.3° (Epoch: 16 September)

Event Time Altitude Azimuth Distance (km) Brightness Sun altitude
Exits shadow 02:28:28 35° 65° (ENE) 805 8.0 -26.2°
Drops below altitude 10° 02:30:46 10° 59° (ENE) 1,678 10.1 -26.0°
Sets 02:32:58 0° 58° (ENE) 2,576 11.3 -25.7°
